DECAYED

STARLINK-6123, 57103 (Decayed)

Orbit data source: Space-Track

STARLINK-6123, 57103 was a payload satellite owned by SpaceX/Seattle (US) in LEO that was launched on Fri, 23 Jun 2023 UTC via an FALCON 9 launch vehicle from the Air Force Eastern Test Range (AFETR). Payload-class satellites include a variety of spacecraft equipped with specific instruments for various scientific and technological missions. These include communications satellites like Starlink; space stations such as the ISS; scientific satellites like the Hubble; Earth observation satellites from companies like Planet Labs, Umbra, and HawkEye 360; GPS; miniature CubeSats for education and research; and military/defense satellites.

Not visible in the next 10 days
Identifier
57103, 2023-090C
Orbit
Decayed
Country
Flag of USUS
Related business
Manufacturer
SpaceX/Seattle
Mission
Decayed Commercial Communications
Bus & Motor
STARLINK, Unknown motor
Mass
305 kg wet, ~290 kg dry
Launch date (UTC)
2023-06-23 (3 years ago)
Launch vehicle
FALCON 9
Launch site
Air Force Eastern Test Range (AFETR)
Object type
Payload
Rocket body
Debris
Shape & HBR
Box + 1 Pan, 10.1 m
Radar Cross Section
11.087 m², Large (>1 m²)

Expand to show TLE details & history
Last TLE update: 1 year ago

TLE from 1 year ago
0 STARLINK-6123
1 57103U 23090C   24366.49099862  .06355477  91835-5  87340-3 0  9991
2 57103  42.9918  53.9362 0000657 162.3102 294.3421 16.34196276 84734
Epoch: 2024-12-31T11:47Z
TLE epoch observation values (Epoch: 2024-12-31T11:47:02.280Z)
Latitude
42.79772°
Longitude
-124.16133°
Altitude
184.102 km
Speed
7.802 km/s
True Right ascension
10h 11m 59s
True Declination
42° 36' 41"
Sunlit
Object was in full shadow at epoch
Visualization orbit readout
Latitude
Unknown
Longitude
Unknown
Altitude
Unknown
Speed
Unknown
Apparent Right ascension
Unknown
Apparent Declination
Unknown
Sunlit
N/A
Visualization observer readout
Local Sidereal Time
21:28:37
Azimuth
Unknown
Elevation
Unknown
Doppler factor
Unknown
Orbital elements
Apogee altitude
183.754 km
Perigee altitude
182.892 km
Semi-major axis
6,561.46 km
Eccentricity
0.00007
Inclination
42.9918°
RAAN
53.9362°
Arg. of periapsis
162.3102°
True anomaly
294.33524°
Mean anomaly
294.3421°
Eccentric anomaly
294.33867°
Mean motion
4.08359 °/min
Orbital period
88.16 mins
BSTAR
0.0008734
Loading maneuver chart data...
Computing Atmospheric mass density...
Loading historical data...
Loading historical data...
Loading historical data...
Loading historical data...
Loading historical data...
Loading historical data...
Loading historical data...

Documentation

Showing up to 5 results
|